Location: Newark
(48.0000°N, 67.0000°E)
Time: 11:25:15
(UTC+00:00)

Vanguard 2 - Pass Details

Date: 22 February 2020
Orbit: 552 x 2938 km, 32.9° (Epoch: 06 April)

Event Time Altitude Azimuth Distance (km) Brightness Sun altitude
Exits shadow 22:54:15 38° 180° (S) 2,963 10.2 -35.3°
Maximum altitude 22:56:01 39° 165° (SSE) 3,029 10.3 -35.1°
Drops below altitude 10° 23:10:10 10° 105° (ESE) 5,583 12.4 -32.9°
Sets 23:15:18 0° 99° (E) 6,741 13.1 -32.1°
